[[{"header":{"parameterUnit":"m.s-1","parameterCategory":1,"la1":30.2991,"la2":30.254,"lo1":-89.0895,"lo2":-89.0444,"dy":0.0017,"dx":0.0017,"nx":28,"ny":28,"refTime":"2025-07-10T09:00:00:Z","depth":0,"parameterNumber":2,"parameterNumberName":"U-component_of_WINDS"},"data":[0,0,0,0,0,0,0,0,0,0,0,0,0,0,0,0,0,0,0,0,0,0,0,0,0,0,0,0,0,0,0,0,0,0,0,0,0,0,0,0,0,0,0,0,0,0,0,0,0,0,0,0,0,0,0,0,0,0,1.8067,1.8067,0,1.8099,1.8099,1.8099,1.8064,1.8062,1.8061,1.806,1.8094,1.8096,1.8098,0,0,0,0,0,0,0,0,0,0,0,0,0,1.7973,1.7975,1.8067,1.8067,1.8067,1.8099,1.8099,1.81,1.8064,1.8062,1.8061,1.8059,1.8093,1.8096,1.8098,0,0,0,0,0,0,0,0,0,0,0,0,0,1.801,1.7976,1.8066,1.8053,1.8052,1.8099,1.8099,1.81,1.8064,1.8062,1.806,1.8058,1.8092,1.8095,1.8099,1.8159,0,0,1.8108,1.811,0,0,0,0,0,0,0,0,1.8008,1.8014,1.8055,1.8054,1.8053,1.8075,1.8079,1.812,1.8065,1.806,1.806,1.8057,1.8089,1.8093,1.8103,1.8161,1.8163,1.8109,1.8111,1.8112,1.8113,0,0,0,0,0,0,0,1.8006,1.8012,1.8079,1.8055,1.8055,1.8045,1.8048,1.8086,1.8086,1.806,1.8058,1.8062,1.8088,1.81,1.8104,1.8163,1.8109,1.8112,1.8114,1.8115,1.8268,1.827,0,0,0,0,0,0,1.8005,1.801,1.8078,1.808,1.8025,1.8049,1.8052,1.807,1.8085,1.8085,1.8064,1.806,1.8096,1.81,1.8105,1.8174,1.8112,1.8115,1.8117,1.8266,1.8269,1.8271,0,0,0,0,0,0,1.8003,1.8011,1.8077,1.8045,1.8052,1.8053,1.8073,1.8072,1.8083,1.8088,1.8087,1.8076,1.8094,1.81,1.8145,1.8175,1.8117,1.812,1.8264,1.8267,1.827,1.8315,0,0,0,0,0,0,1.8,1.8011,1.8034,1.8045,1.8054,1.8117,1.8075,1.8074,1.8089,1.8085,1.8099,1.8099,1.8093,1.814,1.8148,1.8178,1.8122,1.8261,1.8265,1.8269,1.831,1.8319,1.8326,0,0,0,0,0,1.7997,1.8047,1.8036,1.8044,1.8084,1.8119,1.8124,1.8115,1.8092,1.8115,1.8117,1.8099,1.8171,1.8145,1.8154,1.8185,1.8259,1.8264,1.8269,1.8307,1.8317,1.8326,0,0,0,0,0,0,1.804,1.8048,1.8036,1.8091,1.8104,1.8113,1.8142,1.8127,1.8148,1.8144,1.8132,1.8136,1.8183,1.8189,1.8161,1.8243,1.8211,1.8218,1.8237,1.8247,1.8255,1.8251,1.8125,0,0,0,0,0,1.8056,1.8084,1.809,1.8137,1.8145,1.8142,1.8157,1.8149,1.8163,1.8169,1.8175,1.8189,1.8214,1.8231,1.8255,1.8312,1.8313,1.8337,1.8345,1.8352,1.8357,1.8384,1.8394,1.8287,1.8287,1.8287,0,0,1.8089,1.8097,1.8115,1.8146,1.8156,1.8184,1.8147,1.818,1.82,1.8174,1.8216,1.822,1.8235,1.8285,1.8308,1.8292,1.8387,1.8358,1.8363,1.8364,1.839,1.84,1.8409,1.829,1.829,1.8289,0,0,1.8163,1.8173,1.8212,1.8221,1.8236,1.8234,1.8243,1.8253,1.8255,1.8297,1.8276,1.8301,1.8346,1.8356,1.8367,1.8442,1.8425,1.8451,1.8491,1.8517,1.8525,1.8533,1.8556,1.8565,1.8456,1.8456,1.8456,0,1.8202,1.8244,1.8234,1.8266,1.8279,1.8256,1.8294,1.8304,1.8326,1.8335,1.8317,1.837,1.8379,1.843,1.8447,1.8459,1.8467,1.8448,1.8525,1.8532,1.8539,1.8561,1.8571,1.8459,1.8459,1.8459,1.8458,0,1.8289,1.8319,1.8348,1.8368,1.8385,1.842,1.8414,1.8432,1.8422,1.8422,1.8463,1.8472,1.8496,1.8508,1.85,1.8556,1.8545,1.8527,1.8494,1.8552,1.8572,1.8581,1.8463,1.8462,1.8461,1.8461,0,0,1.8392,1.8403,1.8414,1.8421,1.8434,1.8456,1.849,1.8512,1.8526,1.8542,1.8568,1.8606,1.8587,1.86,1.8593,1.8616,1.8671,1.8594,1.8594,1.8605,1.873,1.8742,1.8752,1.866,1.8662,1.8663,1.8727,0,1.8463,1.852,1.851,1.8566,1.859,1.8568,1.8597,1.8607,1.8607,1.8628,1.8629,1.8654,1.8629,1.8636,1.8658,1.8659,1.8695,1.8655,1.8683,1.8684,1.8677,1.8763,1.8777,1.8837,1.8736,1.8737,1.8738,0,1.8554,1.857,1.8627,1.8633,1.8643,1.867,1.8687,1.8708,1.8719,1.8717,1.873,1.8718,1.875,1.8718,1.8761,1.8734,1.8745,1.8747,1.8749,1.8749,1.8713,1.8763,1.8857,1.8864,1.8752,1.8751,1.875,0,1.8618,1.8655,1.8693,1.87,1.8709,1.8727,1.8732,1.8741,1.8754,1.877,1.8777,1.8798,1.8808,1.8824,1.8816,1.8794,1.8859,1.8828,1.8857,1.8857,1.887,1.8869,1.8964,1.8882,1.8882,1.8882,1.8882,0,1.8697,1.8732,1.8721,1.8744,1.8782,1.8771,1.8808,1.881,1.8818,1.884,1.8823,1.8844,1.8835,1.8855,1.885,1.8884,1.889,1.8888,1.8886,1.8888,1.8888,1.8894,1.8888,1.8884,1.8884,1.8883,1.8883,0,1.8774,1.8769,1.8808,1.8812,1.8814,1.8842,1.8845,1.8866,1.8864,1.8892,1.8898,1.8895,1.8918,1.8913,1.8939,1.8935,1.8977,1.8971,1.8973,1.897,1.8999,1.8995,1.9098,1.911,1.9024,1.9024,1.9025,0,1.8824,1.8849,1.8856,1.8869,1.8874,1.8896,1.8908,1.8898,1.8911,1.8924,1.8943,1.8964,1.898,1.9018,1.9017,1.9036,1.9029,1.9064,1.9032,1.9032,1.9025,1.9023,1.9024,1.9069,1.907,1.9071,1.9072,0,1.891,1.8906,1.8924,1.894,1.8955,1.8968,1.8979,1.8991,1.8981,1.8997,1.9019,1.9031,1.9056,1.9076,1.9093,1.9097,1.9082,1.9082,1.9089,1.909,1.9089,1.9087,1.8987,1.9079,1.9078,1.9078,1.9078,1.9077,1.8973,1.8993,1.9,1.902,1.9027,1.9037,1.9056,1.9055,1.9073,1.9091,1.9085,1.911,1.9118,1.9138,1.9145,1.9164,1.915,1.9162,1.9164,1.9166,1.9168,1.9088,1.9167,1.9167,1.9167,1.9167,1.9166,0,1.9056,1.9058,1.9077,1.9092,1.9107,1.9091,1.9102,1.9115,1.9137,1.9146,1.9161,1.9185,1.9204,1.9205,1.9223,1.9237,1.9231,1.9242,1.9239,1.924,1.9181,1.9171,1.9247,1.9247,1.9247,1.9247,1.9247,1.9247,1.9101,1.9133,1.9129,1.9164,1.9167,1.919,1.9197,1.9206,1.9212,1.9239,1.9254,1.9254,1.9259,1.9277,1.9293,1.9293,1.9299,1.9312,1.9309,1.9253,1.9245,1.9237,1.9228,1.9314,1.9314,1.9366,1.9367,1.9367]},{"header":{"parameterUnit":"m.s-1","parameterCategory":1,"la1":30.2991,"la2":30.254,"lo1":-89.0895,"lo2":-89.0444,"dy":0.0017,"dx":0.0017,"nx":28,"ny":28,"refTime":"2025-07-10T09:00:00:Z","depth":0,"parameterNumber":3,"parameterNumberName":"V-component_of_WINDS"},"data":[0,0,0,0,0,0,0,0,0,0,0,0,0,0,0,0,0,0,0,0,0,0,0,0,0,0,0,0,0,0,0,0,0,0,0,0,0,0,0,0,0,0,0,0,0,0,0,0,0,0,0,0,0,0,0,0,0,0,2.6423,2.6423,0,2.6476,2.6477,2.6478,2.6447,2.6445,2.6444,2.6442,2.6495,2.6498,2.65,0,0,0,0,0,0,0,0,0,0,0,0,0,2.629,2.6293,2.6423,2.6423,2.6424,2.6476,2.6477,2.6478,2.6447,2.6445,2.6443,2.6442,2.6494,2.6497,2.6501,0,0,0,0,0,0,0,0,0,0,0,0,0,2.6346,2.6294,2.6423,2.6415,2.6415,2.6476,2.6477,2.6478,2.6447,2.6445,2.6443,2.6441,2.6493,2.6497,2.6501,2.6572,0,0,2.6514,2.6516,0,0,0,0,0,0,0,0,2.6343,2.6351,2.6416,2.6416,2.6416,2.6453,2.645,2.6509,2.6448,2.6435,2.6442,2.644,2.6483,2.6487,2.6502,2.6575,2.6577,2.6514,2.6517,2.6519,2.652,0,0,0,0,0,0,0,2.6339,2.6349,2.6444,2.6416,2.6417,2.6408,2.6413,2.6461,2.6471,2.6436,2.6434,2.6441,2.6482,2.6498,2.6503,2.6578,2.6514,2.6518,2.6521,2.6522,2.6708,2.671,0,0,0,0,0,0,2.6336,2.6346,2.6442,2.6445,2.6373,2.6412,2.6418,2.6443,2.647,2.6472,2.6443,2.6439,2.6492,2.6498,2.6505,2.6588,2.6519,2.6523,2.6525,2.6706,2.6709,2.6711,0,0,0,0,0,0,2.6334,2.6345,2.644,2.6395,2.6406,2.6417,2.6445,2.6445,2.6461,2.6475,2.6476,2.6458,2.6491,2.6499,2.6555,2.659,2.6524,2.6528,2.6703,2.6707,2.671,2.6756,0,0,0,0,0,0,2.633,2.6345,2.6373,2.6396,2.6409,2.6491,2.6447,2.6448,2.6469,2.6465,2.649,2.6491,2.649,2.6549,2.6559,2.6594,2.6532,2.67,2.6704,2.6709,2.6752,2.6761,2.6769,0,0,0,0,0,2.6325,2.6384,2.6374,2.6386,2.6444,2.6493,2.65,2.6497,2.6472,2.6499,2.6508,2.6491,2.6585,2.6555,2.6566,2.6603,2.6698,2.6703,2.6708,2.6748,2.6759,2.6769,0,0,0,0,0,0,2.6364,2.6386,2.6376,2.6444,2.6467,2.6487,2.6522,2.651,2.654,2.6534,2.6529,2.6535,2.6593,2.6604,2.6571,2.6672,2.6637,2.6645,2.6663,2.6674,2.6682,2.6678,2.6535,0,0,0,0,0,2.638,2.6418,2.6436,2.6494,2.6505,2.6512,2.6533,2.6529,2.6552,2.6561,2.6574,2.6596,2.663,2.6653,2.6685,2.6753,2.6757,2.6784,2.6793,2.68,2.6806,2.6841,2.6853,2.6729,2.6729,2.6729,0,0,2.6414,2.6431,2.6456,2.6502,2.6519,2.6557,2.652,2.6563,2.6591,2.6567,2.6621,2.6631,2.6655,2.6717,2.6745,2.6727,2.6841,2.6807,2.6812,2.6815,2.6848,2.686,2.687,2.6733,2.6732,2.6732,0,0,2.6495,2.6513,2.6562,2.658,2.6606,2.661,2.6622,2.6644,2.665,2.6704,2.6686,2.6719,2.6778,2.6796,2.6812,2.6899,2.6883,2.6909,2.6954,2.6988,2.6998,2.7007,2.7036,2.7047,2.6916,2.6916,2.6916,0,2.6534,2.6592,2.6589,2.6633,2.6652,2.6633,2.6682,2.6699,2.6734,2.6748,2.6728,2.6801,2.6817,2.6881,2.6902,2.6917,2.6929,2.6906,2.6997,2.7006,2.7014,2.7041,2.7053,2.6919,2.6919,2.6918,2.6918,0,2.6638,2.6678,2.6715,2.6749,2.6773,2.6819,2.6822,2.6846,2.684,2.6845,2.6899,2.6916,2.6951,2.6966,2.696,2.7029,2.7018,2.6998,2.6962,2.7028,2.7054,2.7065,2.6923,2.6922,2.6921,2.6921,0,0,2.6745,2.6777,2.679,2.6804,2.6831,2.6862,2.6906,2.6941,2.6961,2.6986,2.7021,2.7072,2.7053,2.7072,2.7068,2.7098,2.7163,2.7074,2.7074,2.7088,2.7238,2.7252,2.7265,2.7153,2.7155,2.7156,2.7236,0,2.6827,2.6905,2.6903,2.6975,2.7011,2.6993,2.7031,2.7051,2.7057,2.7087,2.7093,2.7128,2.7102,2.7113,2.7142,2.7149,2.7192,2.7143,2.7185,2.7186,2.7178,2.7278,2.7294,2.7368,2.7246,2.7248,2.7249,0,2.6934,2.6962,2.7038,2.7057,2.7072,2.7107,2.7137,2.7167,2.7189,2.719,2.7211,2.7201,2.7245,2.7208,2.7267,2.7233,2.725,2.7256,2.7259,2.7262,2.7221,2.7283,2.7391,2.7402,2.7265,2.7264,2.7263,0,2.7002,2.7059,2.7111,2.7125,2.715,2.7174,2.7185,2.7205,2.7225,2.7251,2.7264,2.7294,2.7311,2.7334,2.7333,2.7307,2.7392,2.7356,2.7393,2.7393,2.7411,2.741,2.7523,2.7424,2.7424,2.7424,2.7423,0,2.7094,2.714,2.7142,2.7175,2.7226,2.7222,2.7272,2.7281,2.7298,2.733,2.7316,2.7346,2.7343,2.7373,2.7372,2.742,2.7428,2.7429,2.7428,2.743,2.743,2.744,2.7435,2.7427,2.7426,2.7425,2.7425,0,2.7179,2.7183,2.7238,2.7257,2.7263,2.7299,2.7315,2.7344,2.7348,2.7389,2.7399,2.7405,2.744,2.744,2.748,2.7479,2.7537,2.7531,2.753,2.7528,2.7565,2.7561,2.7688,2.7704,2.7596,2.7597,2.7598,0,2.7237,2.7272,2.7295,2.7315,2.7328,2.7362,2.7382,2.7379,2.7401,2.7427,2.7453,2.7486,2.7513,2.7569,2.7576,2.7606,2.76,2.7642,2.7604,2.7604,2.7599,2.7596,2.7599,2.7649,2.765,2.7651,2.7652,0,2.7338,2.7338,2.7368,2.7398,2.7423,2.7447,2.7469,2.7486,2.7486,2.751,2.7546,2.7566,2.7607,2.7639,2.7668,2.7678,2.7665,2.7664,2.7674,2.7676,2.7673,2.7674,2.7549,2.7661,2.766,2.766,2.7659,2.7659,2.741,2.744,2.746,2.7494,2.751,2.7531,2.7559,2.7566,2.7596,2.7629,2.7625,2.7664,2.7682,2.772,2.7732,2.7762,2.7747,2.7762,2.7765,2.7769,2.7772,2.7669,2.7767,2.7767,2.7767,2.7766,2.7766,0,2.751,2.7521,2.7552,2.7583,2.7609,2.7595,2.7618,2.764,2.7675,2.7694,2.772,2.776,2.7791,2.7801,2.783,2.7852,2.7847,2.786,2.7858,2.786,2.7784,2.7772,2.7864,2.7864,2.7864,2.7864,2.7864,2.7864,2.7564,2.7614,2.7615,2.7672,2.7683,2.7721,2.7735,2.7754,2.7768,2.7814,2.784,2.7846,2.786,2.7891,2.7919,2.792,2.7931,2.7947,2.7946,2.7875,2.7866,2.7856,2.7845,2.795,2.795,2.8019,2.802,2.8021]}]]